Wind_Speed
11 12 13 13 13 14 16 16 15 14 15 15 14 12 10 9 11 12 11 9 7 7 7 7 7 6 6 7 8 9 6 4 5 5 6 6 6 5 5 6 6 8 9 10 10 10 11 14 17 20 22 23 21 20 19 19 22 25 22 20 20 18 17 17 11 10 14 13 12 15 15 13 12 10 10 9 8 7 6 4 3 3 3 3 3
12 13 14 14 15 17 20 20 17 14 14 14 13 11 9 9 10 11 10 8 7 7 6 6 6 6 7 7 6 7 5 5 5 5 6 7 6 6 6 7 8 10 11 11 11 10 11 14 18 21 23 23 22 20 20 22 23 25 24 22 22 22 20 17 13 13 15 15 14 16 16 14 13 11 10 9 8 7 6 5 4 3 3 3 3
13 14 15 15 16 17 20 20 16 14 14 14 12 11 10 10 10 9 7 6 6 6 5 5 5 6 8 6 5 6 6 6 6 6 7 8 8 7 7 9 11 12 12 12 12 10 11 14 18 21 22 22 22 20 20 23 24 26 27 26 25 25 23 20 15 14 18 18 16 17 17 16 14 12 11 9 7 6 5 4 5 5 6 6 4
16 16 16 15 17 19 21 21 18 15 15 15 13 13 11 10 9 7 5 6 7 6 5 5 4 5 7 7 7 6 6 7 7 7 8 8 9 8 8 10 11 12 12 12 12 12 14 16 19 20 21 20 20 19 19 21 24 26 28 28 27 26 25 23 18 14 17 19 18 18 17 15 14 13 12 11 9 6 5 5 7 8 9 6 4
17 16 16 16 18 20 21 22 19 17 17 16 13 13 12 10 8 5 6 7 9 8 7 7 5 4 5 7 8 8 7 7 8 8 9 9 9 9 9 10 11 10 11 12 13 14 15 18 19 19 20 20 19 18 18 18 19 22 26 29 29 27 25 24 20 16 16 19 20 19 17 15 14 14 13 13 10 8 7 9 11 11 9 6 5
18 17 18 19 20 20 20 21 19 16 16 15 13 12 12 11 8 6 6 8 9 8 7 7 6 5 4 6 8 9 9 8 8 9 9 9 8 9 11 12 10 9 10 10 11 12 13 15 17 18 19 19 18 17 16 16 15 17 21 25 27 26 24 22 20 17 17 19 20 20 19 17 15 13 12 12 12 12 13 13 12 10 7 6 6
16 16 17 18 21 21 19 18 17 14 13 13 13 12 13 13 11 9 8 9 9 8 8 7 7 6 6 7 7 8 9 9 9 8 9 9 8 9 11 12 11 9 9 9 9 10 11 12 14 17 18 18 16 16 16 15 14 13 16 19 21 23 23 21 20 18 17 18 19 19 18 17 14 12 10 11 14 14 14 15 13 10 7 6 6
13 14 14 16 19 20 17 16 16 15 14 15 15 14 13 13 11 10 10 10 9 9 8 8 9 9 10 10 9 9 10 10 10 10 9 10 10 10 11 12 11 11 11 11 10 10 9 10 11 13 15 16 15 15 14 14 14 15 15 17 19 21 21 20 19 18 18 19 18 17 15 14 13 11 10 13 16 16 15 15 13 10 8 7 6
14 14 14 15 16 16 15 14 15 15 14 14 13 11 10 10 8 7 8 9 10 9 9 9 11 12 13 13 13 12 12 12 12 12 12 11 11 12 12 12 12 12 13 14 13 12 11 10 10 10 11 12 13 14 13 13 13 15 16 17 18 19 20 19 19 19 18 19 18 16 14 12 12 12 13 16 19 18 16 15 13 9 7 6 5
18 17 17 16 14 14 13 13 14 14 13 11 9 8 8 7 5 3 2 4 7 8 8 9 11 12 12 14 16 16 15 14 14 13 13 13 12 12 14 13 13 13 14 15 15 15 14 13 12 12 11 11 11 12 12 13 14 15 15 16 17 18 20 21 21 20 20 20 20 18 15 14 13 14 15 17 18 18 17 15 12 9 7 5 4
24 22 20 17 15 15 14 13 13 12 11 11 10 9 8 5 4 3 1 1 2 3 4 7 10 10 9 10 14 17 17 17 15 14 14 15 15 14 15 15 15 14 15 16 16 17 17 16 15 15 15 15 14 13 13 13 14 16 17 17 18 19 20 21 22 21 21 21 21 20 19 18 16 16 16 18 18 18 16 14 11 9 7 5 4
30 28 25 23 22 20 19 17 15 14 12 10 9 7 4 3 3 4 3 1 1 2 3 3 6 8 9 9 11 13 15 17 18 17 15 15 17 17 17 18 18 18 17 17 17 18 18 18 18 16 16 16 17 17 16 15 15 16 17 18 20 21 21 21 21 21 21 21 21 21 21 20 19 19 20 21 20 18 15 13 10 7 5 4 3
33 32 30 30 29 28 27 26 24 22 19 15 13 11 9 5 3 2 1 2 2 1 2 4 6 7 7 8 8 9 10 12 16 19 19 18 18 19 19 19 20 20 21 20 19 19 19 20 20 19 18 18 18 18 19 19 18 18 18 18 19 20 21 21 21 21 21 21 22 23 22 20 21 22 23 22 22 20 16 12 9 6 5 4 3
33 32 32 31 31 30 30 30 28 27 25 22 20 18 17 14 11 8 6 3 1 1 2 5 8 9 8 8 8 8 7 8 10 15 18 20 21 22 23 23 22 22 22 23 23 22 22 22 22 23 22 22 22 22 22 22 22 22 21 20 20 20 20 20 20 20 20 21 21 22 22 20 19 21 23 22 21 19 15 11 8 6 5 5 5
33 32 32 31 30 28 28 27 27 25 24 24 22 21 20 19 17 15 13 10 6 3 2 5 8 8 9 9 9 9 8 8 8 10 12 15 17 19 22 24 25 25 25 25 26 25 25 25 26 27 26 25 25 26 25 25 25 24 23 23 22 22 22 21 21 21 20 20 19 19 20 19 17 18 21 20 17 14 11 8 7 6 6 7 7
32 32 32 31 30 28 26 25 25 24 23 22 22 21 20 19 17 16 14 12 10 7 6 6 7 7 8 8 9 10 9 9 11 11 12 13 15 16 18 20 22 24 26 27 28 29 29 29 30 30 30 29 28 28 28 28 27 26 25 26 25 24 23 22 21 21 21 20 18 16 17 17 16 17 19 18 15 12 10 9 9 9 9 10 8
31 31 31 30 29 28 27 26 25 23 22 22 22 21 19 18 17 15 13 12 11 9 8 8 9 10 9 9 10 10 9 9 11 13 13 14 15 17 18 20 21 22 23 25 26 28 30 31 32 33 33 32 32 31 30 29 28 27 27 28 28 26 24 23 22 21 20 19 17 15 14 16 17 17 17 15 14 13 12 13 13 12 10 10 8
29 28 27 26 26 26 26 26 25 24 23 22 21 19 18 17 16 15 14 13 12 11 11 10 10 10 10 10 11 12 11 11 11 12 13 14 15 16 17 19 22 23 24 25 25 26 27 29 30 32 33 34 34 32 31 30 29 28 28 30 29 26 25 25 24 23 20 18 17 16 17 19 20 18 15 12 11 10 10 11 13 12 11 9 7
25 24 23 23 23 23 23 23 23 23 22 21 20 18 17 16 15 14 14 13 13 13 12 12 12 11 12 12 12 13 14 14 13 13 14 14 16 17 17 18 20 22 24 25 26 26 26 27 28 29 30 32 32 31 31 31 31 31 31 30 29 30 32 31 27 24 22 20 20 21 21 20 19 18 16 13 12 9 7 7 10 11 10 8 7
22 21 21 22 22 22 21 21 20 20 19 18 17 16 15 14 14 14 14 13 13 13 13 14 13 13 13 13 13 13 15 16 16 15 16 16 17 18 18 18 19 21 23 24 26 26 26 26 27 28 29 30 30 31 32 33 34 33 32 31 32 35 37 34 28 25 24 23 22 21 21 21 20 18 17 16 14 11 8 8 9 9 8 8 9
20 20 20 20 20 19 19 18 18 17 16 15 14 14 13 13 13 13 13 13 13 13 13 14 14 14 14 14 13 13 14 16 17 17 17 17 18 19 20 20 19 20 22 24 26 27 27 26 25 25 27 29 30 31 32 34 36 34 31 31 33 34 34 32 28 25 24 24 23 22 23 23 21 19 18 17 15 12 11 10 9 8 7 7 8
18 19 19 19 18 18 17 16 16 16 15 15 14 14 13 13 13 13 13 13 13 14 14 14 15 15 15 15 14 14 14 15 16 17 18 18 18 20 21 21 21 20 21 23 25 26 27 27 26 24 24 26 28 29 30 32 35 36 34 33 33 33 33 30 27 26 26 26 26 26 26 25 23 21 18 16 15 14 14 13 11 9 7 6 5
17 17 17 17 16 16 15 15 15 15 16 15 15 14 14 14 14 14 13 14 14 14 15 15 16 17 16 16 15 15 15 16 16 17 17 18 19 20 22 22 21 20 20 22 24 25 26 27 26 25 24 25 25 27 28 30 33 35 36 34 31 31 31 27 27 29 29 29 29 28 27 26 24 21 18 18 18 17 16 14 11 10 8 7 5
16 16 15 14 14 13 13 14 15 15 15 14 14 14 14 14 13 13 13 13 14 15 15 16 17 18 18 18 17 17 17 17 17 16 16 16 18 20 22 22 22 21 20 19 21 22 24 26 26 25 24 24 23 24 26 27 30 32 33 31 28 28 28 27 29 31 29 28 29 28 26 24 22 21 21 20 19 17 16 14 12 10 8 7 5
15 14 13 12 12 13 13 13 14 14 14 14 14 15 15 15 14 14 14 14 14 15 15 16 17 17 18 19 19 18 18 17 17 16 16 16 16 17 19 21 21 21 20 19 19 20 21 22 24 25 24 22 22 22 23 24 26 28 30 29 27 28 28 29 31 30 27 25 24 23 22 21 22 22 21 20 18 17 17 15 13 10 8 6 5
15 14 13 13 13 13 14 14 15 14 15 15 15 15 16 16 16 16 17 18 17 17 16 17 17 18 18 19 20 21 20 19 18 17 16 17 17 17 18 19 19 19 19 19 19 19 19 19 21 23 24 22 21 22 22 23 25 26 27 26 26 29 30 32 34 33 29 26 23 21 20 21 22 21 20 19 19 18 17 15 13 10 7 5 5
14 14 14 14 15 15 16 17 16 16 17 17 16 15 16 17 17 18 18 19 19 19 19 19 19 20 21 22 23 23 23 22 21 19 18 19 19 19 19 19 19 19 19 19 18 18 18 18 19 20 21 22 22 22 21 21 21 21 21 21 23 26 29 33 34 33 30 28 25 24 23 22 21 21 20 20 18 16 13 12 11 9 7 5 4
14 14 15 15 15 17 17 17 16 16 17 16 16 16 17 17 17 17 16 17 18 19 19 20 20 20 21 23 25 25 24 23 22 21 20 21 22 22 22 21 20 20 19 19 18 17 16 16 18 18 19 20 21 20 18 17 15 15 16 19 22 24 27 30 29 27 26 26 26 27 25 23 22 22 21 19 17 15 12 9 9 9 7 4 5
13 14 14 14 15 16 16 16 16 16 16 16 16 17 17 17 17 17 16 15 16 17 19 20 20 20 22 23 24 25 26 24 22 21 21 21 22 24 24 23 23 22 20 18 18 16 14 14 16 17 17 18 18 16 15 13 12 13 16 21 25 28 31 31 29 26 26 28 29 28 27 25 24 22 20 17 16 13 11 9 8 8 7 6 6
14 15 14 14 15 16 16 16 16 16 16 17 18 18 18 18 17 17 16 15 15 15 17 19 20 20 21 22 21 22 24 24 23 22 22 22 22 23 24 24 24 23 20 17 16 15 14 14 16 17 17 18 18 17 15 15 16 18 20 23 26 30 31 31 29 28 28 29 29 28 27 26 24 22 19 17 16 13 11 9 8 7 7 7 7
15 14 13 13 15 16 16 16 16 15 15 16 18 20 21 21 19 18 17 17 17 17 17 18 18 18 18 20 19 20 21 22 22 23 23 23 23 23 24 24 24 22 19 16 15 15 15 16 18 18 18 19 19 19 18 19 20 23 25 26 29 31 31 29 28 29 29 29 28 27 26 25 24 22 19 17 15 14 12 9 8 7 7 7 7
13 12 11 12 14 15 15 14 14 13 14 17 20 21 22 22 23 23 21 19 19 19 19 19 19 18 18 19 21 22 22 21 21 21 22 23 23 24 25 24 23 21 17 14 14 16 17 18 20 21 21 22 21 20 21 23 25 27 29 29 31 34 34 32 31 31 30 28 27 26 25 24 23 20 17 15 15 14 12 9 8 7 6 6 6
12 11 11 12 15 15 14 14 14 14 17 20 21 21 21 22 24 26 27 25 24 22 21 20 21 21 21 21 22 23 22 21 20 19 20 21 22 23 24 23 20 17 14 13 16 19 19 21 23 23 24 24 22 22 23 25 27 29 30 28 28 31 32 32 32 31 29 27 25 25 24 23 21 19 16 15 13 12 10 9 7 6 6 6 6
10 9 10 12 14 14 13 13 14 16 18 20 20 20 20 20 21 23 26 27 28 27 25 23 21 22 23 21 20 19 19 18 18 17 18 19 20 21 21 20 17 14 12 14 18 20 21 22 23 23 23 22 22 23 24 25 26 28 29 28 27 28 30 32 32 30 27 24 24 23 22 20 18 17 16 14 12 10 9 8 6 5 5 6 6
7 7 8 10 11 11 12 13 15 16 17 17 18 18 19 19 20 20 21 22 24 26 26 24 22 21 21 19 18 18 17 17 17 16 16 16 17 17 16 14 13 12 12 15 18 20 20 21 21 21 20 19 20 23 25 26 27 28 30 30 30 30 31 30 28 26 23 22 22 21 19 17 15 14 13 12 11 10 9 8 6 5 5 5 5
6 6 7 7 8 10 12 13 14 15 15 15 16 16 17 17 18 18 19 18 19 20 22 22 21 20 18 17 18 18 17 16 15 13 12 13 14 12 11 11 11 11 14 16 18 18 18 18 18 18 17 18 20 23 25 26 27 29 29 29 31 32 30 26 24 22 21 20 19 18 16 14 13 12 11 11 10 9 8 7 5 5 4 4 4
7 6 6 6 8 10 12 13 12 13 14 14 14 14 15 15 16 17 18 17 16 16 17 19 21 21 20 18 18 17 16 15 13 11 12 13 10 7 9 11 11 12 14 16 16 15 15 14 15 16 17 18 21 23 24 24 25 27 27 29 30 29 25 23 21 20 18 17 16 15 14 13 12 11 10 10 10 9 7 6 5 5 4 3 3
8 6 5 6 9 11 11 12 12 13 13 13 13 13 13 14 15 16 17 16 15 15 16 18 20 21 22 21 19 17 16 15 13 13 14 14 8 7 10 11 11 10 12 13 13 12 12 12 13 15 17 19 20 22 24 24 24 25 25 26 26 24 23 21 19 17 15 15 15 14 12 12 11 9 7 8 9 8 7 6 6 5 3 2 1
9 8 6 7 9 10 10 11 12 13 13 13 12 12 12 13 14 14 14 15 15 15 17 18 20 21 21 21 20 19 18 16 15 14 14 13 8 7 9 9 9 10 10 11 12 12 12 13 15 16 18 20 20 21 22 24 24 25 24 23 22 21 21 20 17 16 15 15 14 12 11 10 9 8 7 8 9 9 8 7 6 4 2 1 3
10 9 8 9 9 10 10 10 11 12 12 12 12 12 11 12 12 11 11 12 14 15 17 18 19 20 20 20 20 19 17 15 14 13 12 10 8 6 6 7 8 8 7 9 11 12 13 15 16 17 19 20 20 20 21 22 23 22 21 20 19 19 19 18 17 17 16 14 12 11 9 9 9 10 9 9 9 8 8 6 4 3 2 2 5
10 10 10 10 10 10 10 9 9 10 11 10 11 11 10 10 11 11 10 10 12 15 16 17 17 18 18 18 17 16 13 12 11 10 10 9 8 6 4 3 4 3 4 7 10 12 14 16 16 16 18 18 19 20 21 21 20 20 20 20 20 20 20 18 17 15 14 12 10 9 8 9 10 11 11 10 9 7 5 4 3 2 2 4 6
8 10 11 11 10 9 9 8 7 8 8 8 9 9 9 9 10 11 11 11 12 15 16 16 16 17 17 17 16 15 12 11 9 8 8 9 8 6 4 2 2 3 5 7 9 12 16 17 16 14 14 16 19 20 20 19 19 19 20 21 21 20 18 17 15 13 12 10 9 8 9 11 12 12 11 10 8 5 3 3 3 3 3 5 6
8 10 11 10 8 8 8 7 6 6 7 7 7 7 7 7 8 11 12 12 13 15 16 15 15 15 16 16 16 14 13 12 10 8 8 8 8 7 5 4 5 4 3 5 6 9 14 16 14 12 12 16 19 19 18 17 18 19 20 20 19 17 16 15 14 13 11 10 9 10 11 13 13 12 11 9 7 4 3 3 2 1 3 4 5
7 8 8 7 7 7 7 6 5 5 5 5 5 6 7 7 7 9 11 13 15 15 14 13 12 12 12 13 13 13 13 12 11 10 10 9 9 9 8 6 4 3 3 5 7 9 13 15 15 15 17 18 19 18 17 17 17 18 18 18 17 16 16 15 13 12 10 8 9 11 12 13 12 12 11 9 6 4 3 1 1 3 3 4 5
6 6 6 7 8 8 6 5 5 5 5 4 4 6 7 7 7 6 8 10 13 14 12 10 9 9 10 10 11 12 13 13 12 12 12 11 11 10 9 7 5 4 4 7 10 12 14 15 17 19 21 21 20 18 17 16 17 17 17 16 16 16 15 14 12 10 7 7 8 11 12 12 12 12 11 9 6 4 1 3 4 3 3 4 5
5 5 5 7 8 7 5 5 6 5 4 3 5 7 8 7 5 4 5 8 10 10 9 8 8 9 9 9 9 10 12 13 13 13 14 13 13 12 11 10 10 9 9 10 13 14 15 17 19 21 22 22 20 17 16 16 17 17 16 15 14 13 12 11 10 8 7 6 8 11 12 12 12 11 10 9 6 3 2 4 3 2 3 4 5
5 5 5 6 7 6 4 4 5 4 3 5 6 8 8 7 4 3 4 6 8 8 8 8 8 8 9 10 10 11 12 14 14 15 15 15 15 15 14 14 15 15 15 16 17 18 20 21 22 22 22 20 17 15 15 16 16 15 14 13 11 9 8 8 8 7 7 7 7 10 12 12 11 10 9 8 6 3 1 1 1 4 5 5 5
5 5 5 5 6 5 3 3 4 4 5 6 8 9 9 7 4 3 4 6 7 7 7 7 8 8 9 11 12 13 14 16 17 18 19 19 20 21 21 22 23 24 24 24 24 24 24 24 23 21 19 18 16 15 15 14 13 12 11 10 9 9 9 9 8 7 7 7 7 9 11 11 11 10 9 7 5 3 2 2 3 5 6 5 5
5 5 5 3 5 5 4 3 4 5 6 7 8 9 8 6 4 4 4 5 6 6 5 6 7 8 9 11 14 15 16 17 18 19 20 20 21 22 23 23 24 24 24 24 23 22 22 21 20 18 17 16 15 13 12 11 11 10 9 8 8 9 9 9 9 7 6 6 7 9 10 11 10 9 7 6 4 3 3 3 3 4 5 4 4
7 5 5 3 2 5 4 3 3 4 5 5 7 8 8 6 5 4 4 4 5 5 5 5 6 7 8 9 11 12 13 13 12 12 13 13 14 14 15 17 18 19 20 20 20 19 19 18 17 16 15 14 12 12 11 10 10 10 9 8 8 8 9 9 8 7 6 7 9 10 10 9 8 8 6 5 4 3 3 3 2 2 3 3 5
9 6 6 4 1 2 3 3 3 3 3 3 4 6 8 7 5 4 5 5 5 5 4 4 4 5 7 8 9 10 10 10 10 10 10 11 12 13 14 15 16 17 18 18 18 17 17 16 15 14 13 12 11 10 10 9 9 9 8 8 8 8 9 8 7 7 7 8 9 9 9 7 6 6 5 5 4 3 3 3 2 1 2 2 4
Wind_Direction
167 159 149 145 148 155 160 169 182 188 191 195 196 193 187 184 188 191 189 187 194 198 194 194 199 210 208 193 187 188 190 207 217 206 197 195 193 189 188 192 187 171 162 159 161 169 174 173 175 180 182 185 190 195 197 195 192 191 195 198 198 200 196 183 163 160 184 194 183 173 170 162 156 152 151 156 162 164 165 161 148 130 101 78 60
155 149 147 152 161 167 165 169 181 187 185 190 193 188 179 179 186 190 188 188 193 192 189 196 211 216 206 196 192 194 208 228 224 216 213 208 205 200 192 190 181 164 154 152 155 169 178 174 173 176 181 186 190 192 193 194 195 197 202 208 211 212 208 195 174 162 179 192 186 179 180 177 173 171 168 165 167 171 175 173 165 155 153 136 110
159 155 156 162 168 171 165 165 175 179 173 176 180 177 175 179 185 189 188 184 182 181 186 201 211 209 204 202 203 209 222 233 234 234 226 215 211 208 195 187 179 166 159 155 156 166 173 171 171 173 179 186 192 195 199 201 203 205 209 213 216 217 213 205 194 179 180 188 188 187 188 187 186 190 188 182 185 192 196 205 201 180 164 149 128
161 157 158 163 167 169 166 168 176 178 175 177 175 172 174 178 182 186 182 169 161 161 162 168 180 198 207 212 217 222 227 233 240 241 229 219 215 210 198 190 184 176 173 169 164 165 164 163 163 166 171 177 182 188 195 201 207 212 214 216 217 217 212 210 212 205 191 188 191 195 195 194 196 203 206 204 206 215 215 200 181 164 157 151 130
156 157 158 158 158 160 163 169 178 179 177 176 170 168 172 176 181 184 177 164 156 157 160 159 165 186 205 216 219 224 233 240 242 238 229 226 225 220 209 199 193 191 192 188 180 174 169 165 164 167 172 175 177 182 187 194 202 209 214 215 215 213 208 207 214 218 206 196 194 196 201 204 205 211 220 218 204 187 175 171 163 156 157 151 131
157 160 158 150 144 150 161 172 178 177 174 174 172 173 175 177 181 183 182 178 174 176 180 180 185 195 207 220 220 226 237 244 247 244 237 234 234 228 216 208 206 206 203 198 192 189 185 180 178 180 183 183 183 186 187 190 195 202 209 211 209 206 203 203 209 215 214 206 198 196 202 209 211 215 223 221 203 180 164 159 156 156 157 150 144
156 150 147 143 141 151 167 176 176 172 176 180 179 180 181 180 183 188 191 195 196 200 207 213 219 223 225 230 229 229 231 238 249 251 242 239 240 232 220 215 215 216 213 206 200 197 195 193 189 189 191 192 190 187 185 185 187 193 200 202 200 198 199 203 208 211 212 208 200 197 202 207 210 213 213 206 199 189 175 165 157 155 158 154 158
149 143 142 142 142 149 159 165 168 170 178 180 179 183 185 182 186 196 204 212 217 222 229 237 240 238 235 235 234 228 226 233 242 246 244 246 245 235 225 222 221 223 222 219 215 211 207 201 195 194 197 200 199 194 191 188 183 184 189 192 194 198 201 204 207 209 211 209 204 200 201 203 204 206 199 189 188 186 183 176 165 157 159 158 164
130 129 130 134 140 146 149 153 160 163 167 170 174 179 176 173 184 202 215 223 227 233 244 250 248 242 239 238 236 231 231 235 239 242 243 245 243 234 226 227 231 229 225 224 228 231 229 223 216 209 206 206 205 203 203 204 201 197 196 197 198 202 204 206 208 209 209 210 209 206 203 203 201 197 190 189 192 189 184 181 171 160 159 162 174
107 107 109 115 127 135 134 135 141 143 143 145 152 165 165 165 180 194 217 230 224 231 250 252 246 246 247 244 239 235 235 238 241 244 241 237 238 235 229 229 233 231 227 226 231 237 241 244 241 235 231 228 224 221 219 221 222 219 216 214 212 210 208 207 210 212 213 213 213 210 207 206 204 201 196 193 194 190 184 183 177 164 159 167 184
92 92 94 99 106 111 110 110 115 118 119 124 136 160 175 175 175 176 197 278 213 222 262 252 241 247 255 253 245 240 240 242 243 245 240 234 233 233 232 232 233 233 233 234 238 242 245 248 250 247 244 242 242 244 241 237 232 228 227 226 224 221 217 212 211 213 215 217 217 215 214 212 208 203 197 190 186 185 183 183 179 168 166 171 178
84 82 83 88 91 93 94 93 90 87 90 102 112 126 152 175 186 190 205 294 38 56 17 314 266 257 256 256 253 247 247 249 246 244 241 237 235 235 236 237 238 239 241 243 245 248 248 250 251 250 248 246 247 250 250 247 240 233 230 227 223 222 223 221 218 217 217 217 218 218 220 218 208 200 197 192 185 182 181 181 180 180 181 173 163
80 78 77 80 81 83 85 85 81 79 82 88 88 84 86 98 124 155 202 302 336 35 37 359 330 302 277 264 259 253 253 254 250 246 244 240 240 241 242 243 244 244 245 246 247 248 247 248 248 249 249 249 248 250 250 249 245 239 234 229 224 222 224 226 228 230 229 225 221 220 222 220 211 203 201 197 190 184 181 182 183 182 180 166 156
72 71 70 72 73 75 77 77 75 75 77 80 81 77 74 75 78 74 63 40 348 268 273 306 315 312 304 295 284 273 265 261 257 253 250 247 246 246 247 248 248 248 249 249 250 250 249 247 247 249 249 249 248 248 248 246 244 241 238 236 234 232 230 230 231 234 235 232 229 227 226 223 218 209 202 199 197 192 186 183 180 173 163 155 151
66 64 64 64 65 67 69 70 69 68 69 71 71 68 64 64 65 63 62 65 62 51 359 321 313 308 307 307 302 297 292 282 274 266 262 261 259 256 254 251 251 252 252 252 253 253 252 251 251 252 253 252 251 249 247 246 244 242 241 240 241 240 238 236 236 236 235 233 233 235 231 225 222 214 202 195 193 192 187 179 173 166 157 151 150
61 60 59 58 58 59 61 63 62 60 61 60 58 55 52 50 48 47 52 58 54 48 40 14 348 334 327 322 313 305 301 300 297 289 280 274 270 267 264 260 257 256 255 256 255 255 254 254 254 255 256 255 254 251 248 245 241 239 240 241 240 239 239 238 238 237 236 233 230 232 231 224 218 210 200 192 190 189 180 167 161 161 156 150 153
59 57 56 54 53 53 53 54 54 53 53 51 48 44 40 36 33 29 29 32 29 22 17 8 359 349 342 338 331 317 304 308 316 314 307 298 287 279 273 268 264 261 259 259 258 256 256 255 255 256 256 257 257 255 250 245 239 236 238 240 240 237 236 237 237 235 234 234 228 222 215 203 194 192 192 196 198 194 180 164 159 162 163 155 157
55 54 53 51 49 47 45 45 45 45 45 44 41 37 32 28 22 17 13 11 7 1 353 345 344 343 339 336 334 325 312 311 318 320 320 319 310 301 293 281 272 266 264 262 260 258 257 257 257 257 257 258 259 257 254 249 244 239 237 238 238 238 238 239 236 230 228 228 217 199 185 178 176 178 184 190 191 185 177 168 163 166 169 165 166
55 53 52 49 46 43 41 40 39 39 39 37 35 32 28 23 15 9 5 0 355 351 343 334 332 334 333 331 329 324 315 309 312 313 315 319 317 313 310 299 286 278 273 269 265 262 259 257 257 258 259 260 261 261 259 255 250 246 242 236 234 240 245 244 238 228 219 207 191 179 174 175 178 181 183 181 178 174 170 167 168 171 172 170 172
58 53 48 44 40 37 35 33 32 34 34 32 30 28 25 19 12 6 2 357 351 345 339 335 331 330 330 328 326 324 318 310 308 309 311 315 316 314 311 305 295 288 281 275 270 266 262 259 258 258 259 261 261 262 261 260 257 253 245 236 234 238 241 239 235 226 209 193 186 184 183 183 182 181 177 174 172 171 168 165 169 177 178 173 173
48 45 41 40 39 37 36 33 31 31 30 26 24 23 21 18 13 7 2 357 353 348 342 337 332 327 326 324 322 321 318 312 307 304 306 310 312 311 309 304 300 294 285 278 273 270 268 266 265 265 264 264 264 263 262 263 262 257 248 244 244 244 241 235 227 217 204 196 194 192 186 179 174 171 170 170 171 171 170 167 168 175 180 175 171
37 35 33 34 35 34 32 31 29 27 23 19 17 16 14 12 9 4 360 354 351 348 344 340 334 327 321 319 318 317 315 313 309 304 301 303 306 307 306 303 299 294 286 278 274 272 272 272 271 270 270 269 269 268 267 266 264 261 258 257 255 253 250 239 221 211 207 201 193 184 178 174 170 169 170 171 170 167 165 166 170 172 172 165 162
35 33 32 32 31 29 27 23 20 17 13 11 10 8 6 4 2 0 356 352 348 344 340 337 334 329 323 318 315 314 312 310 310 307 303 300 300 301 303 305 303 296 287 279 276 276 275 272 269 267 267 266 266 267 267 267 267 265 264 263 258 253 249 234 213 206 203 193 183 178 177 174 170 169 170 167 164 162 163 166 170 168 161 152 145
36 37 39 39 37 33 29 23 20 18 16 15 15 13 10 8 5 2 357 352 347 341 337 334 331 329 327 322 317 315 313 310 309 309 308 304 299 295 296 301 306 305 297 286 279 277 275 273 271 269 267 264 262 263 264 266 269 268 266 263 254 243 236 221 203 195 188 180 177 176 176 174 170 167 166 164 163 163 164 164 162 157 149 139 130
35 40 44 45 42 36 31 29 28 27 25 22 18 14 11 7 5 2 357 351 345 339 335 332 328 325 324 322 320 317 315 313 312 311 308 305 301 297 295 296 301 306 305 299 291 284 278 274 272 271 269 265 262 261 262 262 265 266 266 261 248 234 225 211 195 184 176 173 174 172 169 168 167 165 164 164 164 164 161 157 151 145 137 129 124
37 44 46 42 37 31 26 24 23 20 17 14 10 7 4 1 359 355 351 347 343 337 332 330 328 325 322 321 320 319 317 316 316 316 313 307 303 301 299 298 299 302 304 306 305 297 288 279 272 269 269 266 262 262 263 263 263 264 263 256 242 229 217 200 186 177 172 170 170 168 165 163 162 162 162 162 163 163 160 154 146 137 132 132 130
38 41 38 32 27 22 18 14 12 9 7 5 3 360 357 353 350 347 345 343 339 335 331 328 326 324 322 320 320 318 316 315 316 317 318 315 310 306 302 300 302 303 304 308 309 302 291 283 276 270 267 267 264 263 262 262 263 263 257 242 225 213 200 186 178 174 170 169 169 166 163 162 160 160 160 161 160 158 155 151 142 135 133 137 129
39 36 31 26 21 17 13 10 8 5 1 358 356 351 347 343 340 338 338 337 333 330 326 322 321 320 319 319 318 316 314 314 314 314 316 317 316 313 308 303 301 303 305 307 306 300 289 277 268 261 259 260 259 256 252 251 252 250 239 221 204 192 181 175 174 173 170 169 167 164 161 161 161 160 161 161 156 149 145 140 133 131 130 128 121
34 30 23 19 15 12 10 8 5 1 355 352 351 349 345 340 335 330 329 327 324 323 319 315 314 314 312 313 314 312 310 311 311 308 306 308 311 311 308 303 298 298 302 304 299 293 284 268 255 248 246 246 244 240 235 230 224 216 207 198 190 182 176 173 174 174 171 168 164 161 159 159 161 163 164 160 150 143 140 133 125 124 121 111 103
20 16 11 10 9 6 4 2 358 355 353 353 352 351 351 352 345 337 333 329 325 322 317 314 313 312 308 307 308 306 306 308 309 304 297 297 300 301 300 299 295 292 293 295 289 280 271 260 249 241 235 230 226 221 216 208 198 190 186 186 183 176 170 167 168 169 169 168 164 160 158 160 164 167 166 157 148 145 141 130 121 117 109 100 85
5 2 2 5 5 1 357 353 352 353 356 356 350 345 345 348 350 348 345 340 335 330 322 317 316 313 307 306 308 308 308 308 307 300 291 290 292 292 291 293 291 286 284 283 277 268 260 251 244 240 232 226 221 215 206 198 189 181 177 175 174 170 164 163 166 168 167 166 164 162 164 167 168 167 163 155 149 145 140 131 120 106 94 86 68
354 354 357 2 0 353 349 349 351 351 349 347 344 341 340 340 342 344 344 341 337 333 329 326 324 319 312 309 308 309 310 309 305 294 284 284 286 285 285 289 288 283 278 269 259 256 251 243 239 238 232 227 222 212 200 191 183 176 169 164 164 166 166 167 168 168 167 166 165 165 168 169 166 163 157 151 146 143 140 133 120 102 89 76 58
348 350 357 358 352 346 346 350 349 344 340 340 341 342 340 336 334 334 335 336 336 335 334 334 331 327 323 318 314 311 311 310 304 292 282 281 283 282 285 289 287 279 268 252 244 245 243 238 236 235 231 226 219 206 193 183 174 168 163 158 156 159 162 164 165 166 166 166 165 165 166 164 160 156 151 147 144 142 138 131 120 101 82 66 54
345 349 355 350 343 342 346 346 341 337 337 339 340 339 337 334 330 327 327 329 330 331 332 334 335 334 331 326 322 320 316 310 303 294 286 284 285 286 288 289 285 274 258 246 243 243 241 238 235 233 229 222 212 198 185 175 166 160 158 156 154 154 156 159 162 163 162 161 161 160 159 157 154 152 148 145 142 137 132 127 116 92 72 64 59
343 346 346 340 337 341 341 336 334 336 338 340 340 337 334 333 331 327 322 320 319 321 325 332 338 339 337 334 332 331 325 312 301 294 290 290 292 292 289 282 275 264 249 241 240 242 241 239 236 231 223 213 200 188 177 168 161 156 154 155 156 157 159 160 160 158 156 156 155 154 152 150 150 148 146 144 141 135 130 123 103 79 74 73 63
342 338 337 335 337 341 339 336 339 341 341 339 337 334 335 339 340 336 332 326 320 318 324 333 339 342 344 344 341 338 332 318 305 302 305 305 300 291 277 269 267 261 250 241 239 241 242 238 232 224 213 198 186 176 169 163 159 157 157 159 160 160 161 160 157 154 152 152 153 153 151 148 147 147 145 139 133 129 123 110 92 86 87 74 56
342 335 333 334 337 341 345 346 345 342 341 341 338 338 347 358 359 354 348 343 338 334 338 343 346 346 348 349 346 342 337 329 323 325 330 327 312 274 253 258 260 256 251 246 241 240 240 232 221 210 197 183 174 167 163 160 157 158 162 165 163 160 157 156 154 151 150 152 155 155 150 145 144 146 143 134 128 123 112 102 106 114 101 70 51
340 332 321 324 334 341 347 348 345 343 344 346 346 351 1 9 9 5 3 0 357 355 354 353 352 350 348 347 347 346 343 339 338 339 341 340 323 257 247 259 263 258 253 247 239 236 232 218 203 191 180 171 164 159 158 160 162 165 166 164 159 155 154 153 151 149 152 155 155 150 143 138 138 139 137 132 127 120 113 118 130 135 121 87 39
334 328 313 310 321 331 339 345 347 347 349 352 353 358 7 9 6 7 11 9 5 2 359 357 354 351 347 344 345 347 347 347 346 345 344 341 321 276 264 271 272 265 254 239 229 225 215 199 186 175 165 158 153 153 159 164 167 168 166 162 158 155 154 152 151 155 159 156 149 143 138 135 133 131 129 129 126 122 125 132 133 131 128 89 36
327 326 315 305 309 318 328 341 349 350 352 355 356 359 6 7 2 3 9 8 2 359 358 356 352 351 349 348 348 349 350 351 352 350 347 341 329 313 301 283 268 261 250 237 230 219 201 186 176 168 162 155 151 154 162 166 165 164 166 166 162 158 156 156 158 159 157 150 143 139 134 132 134 134 131 129 130 133 136 133 123 123 128 69 42
319 322 316 309 307 310 317 330 345 349 352 354 356 1 9 8 2 1 4 2 356 355 358 359 356 355 356 356 356 358 359 357 356 356 355 352 352 356 345 297 256 226 213 222 220 207 192 180 171 165 163 160 160 161 163 165 167 169 170 168 164 160 160 161 159 156 151 145 142 138 133 136 143 143 137 136 139 139 132 124 124 131 102 52 39
314 316 314 311 305 302 306 318 335 346 348 350 358 8 13 9 7 9 8 4 360 358 1 3 4 6 9 7 5 9 16 15 8 2 355 352 358 14 33 64 100 136 183 206 208 198 187 175 164 159 161 166 168 167 165 167 173 172 167 163 162 162 161 159 156 154 152 148 143 137 136 140 144 144 143 143 141 133 124 133 137 114 67 38 31
315 315 316 313 304 297 302 313 324 336 345 352 4 16 18 14 16 20 22 21 16 9 6 6 9 15 21 18 13 16 26 30 28 24 16 12 18 32 53 75 79 89 142 176 187 186 177 166 153 145 153 163 168 168 169 173 177 173 167 164 165 166 164 162 160 159 157 150 144 141 140 140 144 147 149 145 140 138 152 165 156 57 32 24 28
324 322 322 320 311 303 303 308 317 330 342 351 8 23 26 22 22 28 33 32 23 14 9 10 14 20 25 21 17 24 34 41 43 44 44 47 52 55 62 75 73 68 109 142 154 163 164 158 149 145 150 157 162 165 168 173 176 173 171 171 172 172 170 167 165 163 161 156 151 148 147 146 149 154 154 147 146 163 174 178 342 2 28 39 37
328 324 319 320 319 313 308 313 325 328 328 337 4 24 28 24 23 35 44 37 24 15 13 16 23 30 33 29 27 35 45 52 56 57 58 61 65 65 69 81 88 90 121 142 151 156 157 154 153 152 153 154 155 158 163 170 175 178 179 181 179 174 168 165 164 162 165 166 160 157 155 153 154 158 155 148 151 164 126 30 12 18 55 56 39
322 315 312 324 329 326 322 332 339 337 339 1 18 24 24 17 17 44 58 47 33 24 21 26 36 44 49 49 47 51 57 61 65 68 70 73 77 77 79 86 96 106 118 132 145 152 153 152 152 151 150 149 151 156 164 172 176 177 177 176 174 168 162 162 163 162 167 173 167 163 162 159 157 156 151 144 146 150 38 12 12 53 74 57 39
304 303 307 330 345 344 341 348 351 355 22 38 36 33 28 21 25 69 73 58 49 40 33 38 50 58 64 68 68 68 69 71 74 76 79 81 84 87 90 93 98 104 112 120 129 134 134 135 136 136 136 137 142 148 153 157 159 161 161 163 166 169 172 176 174 168 168 170 169 168 167 164 159 155 149 143 141 137 25 344 45 69 62 51 46
284 292 296 327 357 7 17 27 23 24 35 37 35 34 29 22 35 75 76 64 61 54 42 44 56 65 73 82 84 84 84 86 86 86 87 88 91 93 96 99 100 103 106 109 112 114 116 118 119 119 122 128 133 138 140 142 144 148 153 159 165 170 172 170 167 164 163 166 169 173 171 165 159 155 153 149 140 113 93 131 106 63 44 41 53
262 278 280 314 9 29 43 49 41 36 35 31 25 24 25 25 39 65 70 70 71 62 48 47 57 66 79 92 98 98 97 96 92 88 87 87 89 92 94 97 99 102 103 103 104 105 105 106 106 109 116 124 129 130 130 129 130 132 136 143 151 156 157 155 154 155 157 158 160 163 162 159 159 161 161 157 145 112 103 123 102 51 30 32 43
243 259 262 274 15 41 46 53 52 42 36 31 22 18 20 27 39 54 66 77 81 74 61 54 60 71 86 100 107 108 107 104 98 91 88 87 87 89 91 94 98 102 102 102 102 102 101 102 105 110 117 123 125 124 123 122 121 118 117 121 131 141 146 147 147 146 145 145 149 151 153 156 164 172 176 174 166 142 121 126 109 34 34 48 40
229 241 249 246 248 49 47 53 58 42 37 46 40 21 16 20 34 56 76 87 90 84 76 71 72 79 89 98 104 108 109 107 103 96 92 90 90 90 90 92 96 99 100 101 102 103 104 107 111 115 118 118 117 117 119 121 122 118 112 110 117 129 137 140 139 135 135 141 147 153 157 161 170 181 191 192 187 166 135 138 169 304 4 47 38
Height
798 800 801 802 804 805 807 810 813 814 815 816 817 817 818 818 819 820 821 822 823 823 824 825 826 827 828 828 829 830 831 831 831 831 832 833 833 833 833 833 833 833 833 833 833 834 834 834 834 835 837 838 840 841 843 845 846 848 849 850 851 852 854 855 856 857 859 861 861 862 863 864 866 867 868 869 870 871 871 872 872 873 873 873 873
798 800 802 803 804 805 806 809 811 812 815 817 818 818 819 819 820 821 822 822 823 824 825 826 826 827 828 829 830 831 831 832 832 832 833 833 834 834 834 834 834 834 834 835 835 835 835 835 835 836 838 839 840 842 843 844 846 847 848 849 850 851 853 854 855 856 858 859 860 861 862 863 864 866 867 868 869 870 871 871 872 872 872 873 873
798 800 801 803 804 805 807 808 809 812 814 817 818 819 819 820 821 822 822 823 823 824 825 826 826 828 829 829 830 831 832 832 833 833 834 834 835 835 835 835 836 836 836 836 836 836 836 836 836 837 839 840 841 842 843 844 845 846 847 848 849 850 852 854 854 855 856 858 859 860 860 862 863 865 866 867 869 869 870 871 871 872 872 872 872
798 799 801 802 803 805 806 807 809 811 814 815 817 818 819 821 822 823 823 823 824 825 825 826 827 828 829 830 831 831 832 833 833 834 834 835 835 836 836 836 837 837 838 838 838 838 838 837 838 838 839 840 841 842 843 844 845 845 846 848 849 850 851 853 854 854 855 856 858 859 860 861 862 864 865 866 868 868 869 870 870 871 871 872 872
797 799 800 802 803 805 806 808 809 811 813 814 816 818 819 821 823 824 824 824 825 825 825 826 827 828 829 830 831 832 832 833 833 834 835 835 836 836 837 837 838 838 839 839 840 840 839 839 839 840 840 840 841 842 843 843 844 845 845 846 848 849 850 852 853 854 854 855 857 858 859 860 861 863 864 865 867 868 868 869 869 870 871 871 872
797 798 800 801 803 806 808 809 810 811 812 814 816 818 819 821 822 824 825 825 825 826 826 826 827 828 829 830 831 832 833 833 833 834 835 835 836 836 837 838 838 839 839 840 841 841 841 841 841 841 841 841 842 842 843 844 844 844 845 845 847 848 850 852 853 854 854 855 856 857 858 859 861 862 863 865 866 867 867 868 869 870 870 871 871
799 800 801 803 804 806 808 809 810 812 814 815 817 818 819 820 822 823 825 826 826 826 826 827 827 829 830 831 832 833 833 833 834 834 835 835 836 836 837 838 838 839 840 840 841 842 842 842 842 842 842 842 842 843 843 844 844 845 845 846 847 848 850 851 852 853 854 855 856 856 857 858 860 861 862 864 865 866 867 867 869 869 870 870 870
801 802 804 805 807 808 809 810 811 813 815 816 818 819 819 820 822 823 825 825 826 826 826 827 828 829 830 831 832 833 833 834 834 834 835 835 836 836 836 837 838 839 840 840 841 841 842 842 843 843 843 843 843 843 843 844 844 845 846 846 847 848 849 850 851 853 854 854 855 856 857 858 859 860 861 862 864 865 866 866 868 869 870 870 870
802 803 804 806 808 809 810 811 812 813 814 816 819 820 820 820 822 824 825 825 826 826 826 827 827 829 830 831 832 833 833 834 834 834 835 835 835 835 836 837 838 838 839 840 840 841 841 842 843 843 843 844 844 844 844 844 844 845 845 846 847 848 848 850 850 852 853 853 854 855 856 857 857 858 859 860 862 863 864 865 866 868 868 868 869
804 805 806 808 809 810 810 811 812 813 814 816 818 820 820 821 822 824 825 825 825 826 826 827 827 829 830 830 832 832 833 834 834 835 835 835 835 835 836 836 837 837 838 839 840 840 841 841 842 843 843 843 844 844 844 844 844 844 845 845 846 847 847 848 849 850 851 851 852 853 854 855 855 856 857 859 860 862 863 864 865 866 867 867 867
806 807 809 810 811 811 812 813 813 813 815 816 817 819 820 822 823 824 825 825 826 825 826 827 828 829 830 830 831 832 833 834 834 835 835 835 835 835 836 836 836 837 837 838 839 839 840 840 841 841 842 842 842 843 843 843 844 844 844 845 845 845 846 847 847 848 849 849 850 851 851 852 853 854 856 857 859 860 861 862 863 864 865 866 866
808 809 811 811 812 812 813 813 813 814 815 816 817 819 821 823 824 824 825 826 826 826 826 828 829 830 830 830 831 832 832 833 834 835 835 835 835 836 836 836 836 836 836 836 837 838 839 840 840 840 841 841 841 841 842 842 842 843 843 844 844 844 845 845 846 847 847 848 848 849 849 850 851 852 853 854 856 858 859 860 861 862 863 863 864
810 811 812 813 813 813 813 814 814 815 815 816 817 819 821 823 823 824 824 825 825 825 826 827 829 830 831 831 831 831 832 832 833 834 834 835 835 835 835 836 835 835 835 835 836 836 837 838 839 839 839 839 839 840 840 841 841 842 842 843 843 843 844 845 845 845 846 846 846 847 847 848 849 850 851 852 854 855 857 858 859 860 860 861 862
812 813 814 814 815 815 815 815 816 817 818 817 818 820 821 822 822 823 824 824 825 825 825 826 829 830 831 831 831 831 831 832 832 833 833 834 834 835 835 835 835 835 835 835 835 835 836 837 837 837 837 837 838 838 839 839 840 841 841 842 842 843 843 843 843 844 844 844 845 845 846 847 848 849 850 851 852 853 855 856 857 858 859 860 861
814 816 816 817 817 817 817 818 818 819 820 820 820 821 821 822 823 824 825 824 824 824 825 827 829 830 830 830 830 830 831 831 832 832 832 833 833 833 834 834 834 834 834 834 834 835 835 836 836 835 835 836 836 836 837 838 839 840 841 841 841 841 841 841 842 842 842 843 843 844 845 846 847 848 849 850 851 852 853 854 856 857 858 859 861
817 818 818 820 820 820 820 820 820 821 821 821 822 822 823 824 824 825 826 826 826 826 827 828 829 829 829 829 829 829 829 830 831 831 832 832 832 832 832 832 832 832 832 832 833 833 834 834 834 834 834 834 835 835 836 837 837 838 839 839 839 839 839 839 840 840 840 841 841 842 843 844 846 847 848 850 851 851 852 853 854 855 857 859 860
819 821 822 823 823 823 823 823 822 823 822 822 823 824 825 825 825 826 826 826 827 828 829 829 830 830 829 828 828 827 828 828 829 829 830 830 831 831 830 830 830 829 829 829 830 831 831 832 832 832 832 832 833 833 834 834 835 836 836 836 835 836 837 837 838 838 839 839 840 840 841 842 844 846 848 849 849 849 849 851 852 854 855 857 859
823 824 825 826 826 826 826 826 826 826 825 824 825 825 826 826 826 827 827 827 828 829 830 830 830 830 829 828 827 827 826 827 827 828 828 828 828 828 828 828 827 827 826 826 827 828 829 829 829 829 829 830 831 832 832 832 831 832 833 833 833 833 835 836 835 836 837 838 838 838 839 840 841 843 846 848 848 848 848 848 849 852 854 856 857
827 828 829 828 828 828 827 828 829 828 828 828 827 827 827 827 828 828 828 828 829 829 829 829 830 829 829 828 827 826 825 826 826 826 826 826 826 825 825 825 825 825 824 824 824 825 826 827 827 827 827 828 829 830 830 829 828 829 830 831 830 831 832 833 834 834 835 835 836 837 837 839 840 841 843 845 847 848 847 847 848 851 853 854 855
830 831 830 829 828 828 829 829 830 830 831 831 830 830 829 829 829 829 829 829 829 829 829 828 828 828 827 827 826 826 825 824 824 824 824 824 824 823 823 823 823 822 822 822 822 823 824 824 825 825 825 825 826 827 827 826 825 825 826 827 827 827 828 830 832 833 833 834 835 836 836 837 839 840 840 843 845 846 847 847 848 850 851 852 854
831 831 831 831 831 831 831 832 832 832 832 832 832 832 831 831 830 830 830 830 829 829 829 828 828 827 827 826 826 825 825 824 823 823 823 823 823 822 821 821 821 821 820 820 820 820 821 821 822 822 822 822 823 824 824 824 823 822 823 824 824 825 826 828 830 831 832 833 834 834 835 836 837 839 840 842 843 845 846 847 848 850 851 851 852
832 832 832 832 832 832 832 832 832 832 832 832 832 831 831 831 831 830 830 830 830 829 829 828 828 827 826 826 826 825 825 824 823 822 822 822 821 820 819 819 819 818 817 817 817 817 818 818 818 819 819 818 819 819 820 821 821 820 820 822 823 824 824 825 827 829 830 831 831 832 833 834 835 837 839 841 843 844 844 846 848 849 850 850 850
834 834 833 833 833 833 833 833 832 832 832 832 831 831 831 830 830 830 830 829 829 829 829 828 827 827 826 826 825 825 824 824 823 822 821 820 820 819 817 816 816 816 815 814 814 814 814 815 815 816 816 816 816 816 816 817 818 818 818 819 820 821 822 823 824 826 827 828 828 830 832 832 833 836 839 841 843 844 844 846 847 848 848 848 849
836 835 835 835 835 835 835 835 834 834 834 833 833 832 831 831 830 830 830 829 829 828 828 827 827 826 825 825 824 824 824 823 822 822 821 820 818 817 815 814 813 813 812 811 811 811 811 812 812 813 814 813 813 814 814 814 814 815 815 816 817 818 819 820 821 822 824 826 827 830 831 831 832 834 837 840 843 844 844 846 846 846 847 847 848
836 836 836 836 837 837 837 836 836 835 835 834 833 832 832 831 831 830 830 829 828 828 827 827 826 826 825 824 824 823 823 822 821 821 820 819 817 815 814 812 811 810 808 808 808 808 808 808 808 809 810 810 811 810 810 811 811 812 812 813 814 814 815 817 818 820 823 826 829 830 831 831 832 834 836 840 842 844 844 845 845 845 846 846 847
836 836 836 836 836 836 836 835 834 834 833 833 832 832 831 830 829 828 828 827 826 826 825 825 824 823 822 822 821 821 820 820 819 818 817 816 815 813 812 810 809 808 806 805 805 804 804 804 804 805 806 807 807 807 807 807 808 808 809 809 810 810 810 811 814 816 820 825 829 831 833 834 835 835 837 840 843 844 844 844 844 845 845 846 847
834 834 835 835 835 834 833 833 832 832 832 831 831 830 829 829 828 827 826 825 824 823 822 822 821 820 819 818 817 817 816 816 816 815 814 813 811 810 809 807 806 805 804 803 802 801 801 800 801 802 803 804 804 803 803 803 804 804 805 806 808 809 809 810 811 814 817 822 826 831 834 837 837 837 839 841 843 843 843 842 842 844 845 846 847
834 835 835 835 834 834 833 833 832 832 831 831 830 829 829 828 827 826 825 824 823 822 821 820 819 818 817 815 814 813 813 813 813 813 812 810 808 807 806 804 804 803 801 801 799 798 798 797 798 798 799 800 801 800 800 800 800 802 803 804 806 808 811 813 816 818 819 822 826 830 833 836 838 839 841 842 843 842 842 841 842 843 845 846 846
835 835 835 835 834 834 834 833 833 832 831 831 830 829 828 827 826 825 824 824 823 821 820 819 818 817 816 815 814 812 810 810 811 810 810 809 807 806 804 803 801 800 799 798 797 796 796 796 796 796 796 797 798 798 798 797 798 800 802 803 804 806 808 811 815 818 821 823 826 829 831 834 838 840 842 842 842 841 841 841 841 843 844 844 845
835 835 835 835 834 834 834 833 832 832 831 830 829 828 828 827 826 824 823 823 822 821 820 818 817 816 815 814 814 812 809 808 808 808 807 806 805 804 802 801 799 798 797 796 795 795 794 794 794 795 795 795 796 796 796 796 796 798 801 803 804 805 806 808 812 817 821 824 826 828 831 833 837 840 841 841 840 840 840 840 840 841 842 842 843
835 835 835 835 834 834 834 833 832 832 831 830 829 828 827 826 825 824 823 822 821 820 819 818 817 816 815 813 812 811 809 807 806 805 804 803 802 801 799 798 797 796 795 794 794 793 793 793 793 793 794 794 795 795 795 795 795 796 799 801 803 804 805 808 812 817 822 825 826 828 831 833 836 838 839 838 838 838 838 839 839 839 840 840 841
836 836 836 835 835 835 834 834 833 832 831 830 829 828 826 824 823 821 821 821 820 819 818 817 816 815 814 812 810 809 807 806 804 802 801 800 799 798 796 795 794 794 793 792 792 791 791 791 791 792 792 793 794 794 794 794 794 795 797 800 801 802 804 807 811 816 821 825 826 828 830 833 835 836 836 836 836 836 836 837 837 838 839 839 840
836 836 836 835 835 834 834 833 833 832 831 830 828 827 826 824 822 819 818 817 817 817 816 815 814 813 811 810 808 806 804 803 801 799 798 797 796 795 793 792 791 791 790 790 790 789 789 789 790 790 791 791 792 793 794 794 794 795 796 799 802 803 804 808 813 817 821 824 825 827 830 832 833 833 833 833 833 833 834 834 835 837 838 839 840
836 836 836 835 835 834 834 833 832 831 830 829 828 827 825 824 823 821 818 816 814 813 813 813 812 810 808 807 805 803 801 799 798 797 795 794 793 792 791 789 789 788 788 788 788 787 787 788 788 789 790 791 791 792 793 795 795 795 796 799 804 808 809 812 816 819 821 823 825 828 830 830 830 830 830 831 831 831 832 833 835 836 837 838 839
837 837 836 836 836 835 834 834 832 832 830 829 828 827 826 824 824 822 820 818 815 812 811 810 810 808 806 804 802 800 798 797 795 794 793 792 790 789 788 788 787 786 786 786 786 786 787 787 788 788 790 791 791 792 793 795 796 798 799 801 804 809 812 815 817 819 821 823 825 826 827 827 827 828 828 829 829 829 830 832 834 836 837 838 839
837 837 837 837 836 836 835 834 832 831 830 829 828 826 825 824 823 821 820 818 816 813 811 808 807 806 805 803 801 799 796 795 793 792 791 789 788 787 786 786 785 785 785 785 785 785 786 786 787 788 789 790 792 793 794 796 798 800 802 804 806 809 812 815 817 818 819 821 823 824 825 825 826 826 827 828 828 829 830 832 834 836 837 838 840
837 837 836 836 836 835 834 833 832 831 829 828 827 825 824 823 822 820 818 816 815 813 810 808 805 804 802 801 799 797 795 793 791 790 789 787 786 786 785 785 784 784 785 785 785 786 786 786 787 788 789 790 792 793 795 797 800 803 806 808 809 810 812 814 816 817 818 820 822 823 823 823 824 825 826 827 828 829 830 832 835 837 838 839 840
837 836 836 836 835 834 833 832 831 830 828 827 826 824 823 822 821 820 818 816 814 812 810 808 806 803 801 799 798 796 794 792 791 789 788 786 785 785 785 785 785 784 785 786 786 786 787 787 788 788 789 791 793 794 796 799 803 806 809 811 811 811 813 814 815 817 818 820 821 822 822 823 824 825 826 827 828 830 832 834 836 838 839 840 840
836 836 835 835 834 834 833 832 831 829 828 826 825 824 823 822 821 819 818 816 814 812 810 808 806 804 802 800 798 796 794 792 791 789 788 786 785 785 785 785 785 784 784 786 787 787 787 788 789 789 790 792 794 796 799 802 805 808 811 812 811 812 813 814 816 817 819 820 821 821 822 823 825 826 828 829 831 833 834 836 837 837 838 839 839
836 835 835 834 834 833 832 831 830 829 827 826 825 824 823 822 821 819 817 816 814 812 811 809 807 805 803 800 798 796 795 793 792 790 788 787 786 786 785 785 785 784 783 785 787 787 788 789 790 790 791 793 795 798 801 804 806 808 810 811 811 812 814 815 816 817 819 819 820 821 822 824 825 827 829 831 833 835 836 836 837 837 837 837 837
836 835 834 834 833 832 832 831 830 829 828 826 825 824 823 822 821 819 818 816 814 813 811 810 808 806 804 801 799 797 796 794 793 792 790 789 788 788 787 786 785 784 785 787 788 788 789 790 791 791 792 794 797 800 803 805 807 808 809 811 812 814 815 816 816 817 818 820 821 822 823 824 826 829 831 833 834 836 836 837 837 837 836 836 835
835 835 834 833 832 832 831 830 830 829 828 827 826 825 823 822 821 820 818 816 815 813 812 810 808 807 804 802 800 798 797 795 794 793 792 791 790 789 789 788 787 787 787 788 789 789 789 790 792 793 794 797 799 802 804 806 807 808 810 811 813 815 816 816 817 818 820 821 822 823 824 825 827 829 831 833 834 836 837 837 837 837 836 835 835
835 834 834 833 832 831 830 830 829 828 827 826 826 825 824 823 821 820 818 817 816 814 812 811 809 808 806 804 801 799 798 796 795 794 794 793 792 791 790 790 789 789 789 790 790 790 790 791 793 795 797 799 801 803 805 806 808 809 811 812 814 815 816 817 819 820 821 822 823 824 825 826 828 830 831 833 834 836 837 838 837 836 836 835 834
835 834 833 833 832 831 830 829 829 828 827 826 825 825 824 823 822 820 819 818 816 815 813 812 811 809 807 805 803 801 799 798 797 796 795 794 793 792 791 791 791 791 791 791 792 792 792 793 795 796 798 800 802 804 806 808 809 811 812 813 815 816 817 818 820 821 822 823 824 825 826 827 829 830 832 833 835 836 837 837 837 836 836 835 834
834 834 833 833 832 831 830 829 828 827 826 826 825 825 824 823 822 821 819 818 817 816 815 813 812 810 809 807 805 804 802 801 800 799 797 796 795 794 793 792 792 793 793 793 794 794 795 796 797 798 800 802 804 807 808 810 812 813 814 815 816 817 818 820 821 823 824 824 825 826 827 828 829 831 832 833 835 836 837 837 837 836 836 835 834
834 834 833 833 832 831 829 828 828 827 826 826 825 824 824 823 822 821 820 819 818 817 816 815 814 812 811 809 808 806 805 804 802 801 800 799 798 797 796 796 795 795 795 795 796 797 798 799 800 801 803 805 807 809 811 812 813 815 816 817 818 819 821 822 823 824 825 826 826 827 828 829 830 831 832 833 834 835 836 837 837 837 836 835 833
834 833 833 833 832 830 829 829 828 827 826 826 825 825 824 823 822 821 820 820 819 818 817 816 815 814 813 811 810 809 808 807 806 804 803 802 801 800 800 799 799 798 798 799 799 800 801 802 804 805 807 809 811 812 813 815 816 817 818 819 820 821 822 823 824 825 826 827 827 828 829 830 831 832 832 832 833 835 836 837 837 837 836 835 833
833 833 833 833 832 831 830 829 828 827 827 826 826 825 825 824 823 822 821 820 820 819 819 818 817 816 815 814 813 812 811 810 809 808 807 807 806 805 804 803 803 803 803 804 804 805 806 807 808 810 811 813 814 815 816 817 818 819 820 821 821 822 823 824 825 826 827 828 828 829 829 830 831 832 832 832 833 835 836 837 837 837 836 835 833
833 833 833 833 832 831 830 829 829 828 827 827 827 826 825 825 824 823 822 822 821 821 820 819 818 818 817 816 816 815 814 813 813 812 812 811 811 810 809 809 808 808 808 808 809 810 810 811 812 813 815 816 817 818 819 820 820 821 822 822 823 823 824 825 826 827 828 829 829 830 830 831 831 832 833 833 834 835 836 837 837 837 837 835 834
832 832 833 833 832 831 831 830 829 829 828 828 828 827 826 826 825 824 824 823 823 822 822 821 820 819 819 818 818 817 817 817 816 815 815 815 814 814 813 813 813 813 812 813 813 813 814 815 816 817 818 819 819 820 821 821 822 823 823 824 824 825 826 827 828 829 829 830 830 830 831 832 833 834 834 834 834 835 836 837 837 837 836 835 834
832 832 832 832 832 832 831 830 830 829 829 829 828 828 827 827 826 825 825 825 824 824 823 823 822 821 821 820 820 819 819 819 818 818 818 818 817 817 817 816 816 816 816 816 817 817 817 818 819 819 820 821 821 822 823 823 824 824 825 825 826 827 827 828 829 830 830 831 831 831 832 833 834 835 835 835 834 835 836 836 837 837 836 835 834